カタログに戻る

STARLINK-11328

運用中通信VLEO
NORAD 61880·PAYLOAD·🇺🇸 United States

打ち上げ Nov 9, 2024 から Vandenberg Space Force Base

Loading…

次のパス (今後24時間)

TLE

最新Source: CelesTrak SupGP

元期: Sep 15, 2026, 03:24 UTC

1 61880C 24204G   26258.14215278  .00072191  00000+0  59439-3 0  2588
2 61880  53.1565 142.3891 0001067  85.9781 126.0136 15.69684161    17

AllMySatでSTARLINK-11328をリアルタイム追跡

Download on the App Store